TimeEST,TemperatureF,Dew PointF,Humidity,Sea Level PressureIn,VisibilityMPH,Wind Direction,Wind SpeedMPH,Gust SpeedMPH,PrecipitationIn,Events,Conditions,WindDirDegrees,DateUTC
12:14 AM,29.3,28.0,95,30.18,10.0,East,8.1,-,N/A,,Overcast,100,2012-12-15 05:14:00
12:34 AM,29.1,27.9,95,30.18,10.0,ESE,6.9,-,N/A,,Overcast,110,2012-12-15 05:34:00
12:54 AM,29.8,28.8,96,30.18,10.0,East,6.9,-,N/A,,Overcast,90,2012-12-15 05:54:00
1:14 AM,29.8,28.8,96,30.17,10.0,East,9.2,-,N/A,,Overcast,80,2012-12-15 06:14:00
1:35 AM,29.8,28.8,96,30.16,10.0,East,8.1,-,N/A,,Overcast,90,2012-12-15 06:35:00
1:55 AM,30.2,29.1,96,30.16,10.0,East,8.1,-,N/A,,Overcast,90,2012-12-15 06:55:00
2:15 AM,31.1,29.8,95,30.15,10.0,East,8.1,-,N/A,,Overcast,90,2012-12-15 07:15:00
2:35 AM,31.1,29.8,95,30.16,10.0,East,6.9,-,N/A,,Overcast,100,2012-12-15 07:35:00
2:55 AM,31.1,29.8,95,30.16,10.0,East,6.9,-,N/A,,Overcast,90,2012-12-15 07:55:00
3:15 AM,30.6,29.3,95,30.15,10.0,East,5.8,-,N/A,,Overcast,90,2012-12-15 08:15:00
3:35 AM,31.1,30.0,96,30.15,10.0,East,5.8,-,N/A,,Overcast,100,2012-12-15 08:35:00
3:55 AM,31.1,30.0,96,30.14,10.0,East,6.9,-,N/A,,Overcast,90,2012-12-15 08:55:00
4:15 AM,31.1,30.0,96,30.13,10.0,East,6.9,-,N/A,,Overcast,90,2012-12-15 09:15:00
4:35 AM,31.5,30.4,96,30.12,10.0,East,5.8,-,N/A,,Overcast,90,2012-12-15 09:35:00
4:55 AM,33.3,32.2,96,30.12,10.0,East,4.6,-,N/A,,Overcast,100,2012-12-15 09:55:00
5:16 AM,33.3,32.2,96,30.12,10.0,East,4.6,-,N/A,,Overcast,90,2012-12-15 10:16:00
5:36 AM,33.3,32.4,96,30.11,10.0,East,4.6,-,N/A,,Overcast,80,2012-12-15 10:36:00
5:51 AM,33.3,32.4,96,30.11,10.0,ESE,8.1,-,N/A,,Overcast,120,2012-12-15 10:51:00
6:11 AM,33.3,32.2,96,30.12,10.0,SE,10.4,-,N/A,,Overcast,130,2012-12-15 11:11:00
6:31 AM,33.3,32.0,95,30.11,10.0,ESE,13.8,18.4,N/A,,Overcast,120,2012-12-15 11:31:00
7:11 AM,33.3,32.2,96,30.10,10.0,ESE,13.8,19.6,N/A,,Overcast,120,2012-12-15 12:11:00
7:31 AM,33.3,32.2,96,30.10,10.0,ESE,13.8,19.6,N/A,,Overcast,120,2012-12-15 12:31:00
7:51 AM,33.3,32.2,96,30.11,7.0,ESE,12.7,-,N/A,,Overcast,120,2012-12-15 12:51:00
8:12 AM,33.3,32.2,96,30.09,7.0,SE,9.2,-,N/A,,Overcast,130,2012-12-15 13:12:00
8:32 AM,33.3,32.2,96,30.09,7.0,ESE,11.5,-,N/A,,Overcast,110,2012-12-15 13:32:00
8:52 AM,33.4,32.4,96,30.07,5.0,ESE,12.7,17.3,N/A,,Overcast,110,2012-12-15 13:52:00
9:12 AM,34.3,33.1,95,30.06,5.0,ESE,10.4,-,N/A,,Overcast,110,2012-12-15 14:12:00
9:32 AM,35.6,33.8,93,30.05,5.0,ESE,10.4,-,N/A,,Overcast,110,2012-12-15 14:32:00
9:52 AM,35.8,33.8,92,30.04,5.0,ESE,11.5,17.3,N/A,,Overcast,120,2012-12-15 14:52:00
10:12 AM,35.8,33.8,92,30.03,5.0,ESE,15.0,-,N/A,,Overcast,110,2012-12-15 15:12:00
10:32 AM,35.8,33.3,91,30.01,5.0,ESE,11.5,19.6,N/A,,Overcast,110,2012-12-15 15:32:00
10:52 AM,35.8,32.9,89,30.00,5.0,ESE,15.0,-,N/A,,Scattered Clouds,110,2012-12-15 15:52:00
11:13 AM,35.8,32.5,88,29.99,5.0,ESE,10.4,20.7,N/A,,Scattered Clouds,110,2012-12-15 16:13:00
11:33 AM,36.0,32.4,87,29.99,7.0,ESE,13.8,18.4,N/A,,Scattered Clouds,120,2012-12-15 16:33:00
11:53 AM,36.3,32.4,86,29.99,7.0,ESE,12.7,18.4,N/A,,Mostly Cloudy,120,2012-12-15 16:53:00
12:13 PM,36.5,32.4,85,29.98,5.0,ESE,13.8,-,N/A,,Haze,120,2012-12-15 17:13:00
12:33 PM,38.3,33.8,84,29.97,7.0,ESE,11.5,-,N/A,,Overcast,120,2012-12-15 17:33:00
12:53 PM,38.3,33.8,84,29.94,5.0,ESE,11.5,17.3,N/A,,Overcast,110,2012-12-15 17:53:00
1:13 PM,38.3,33.3,82,29.91,7.0,East,11.5,17.3,N/A,,Overcast,100,2012-12-15 18:13:00
1:33 PM,38.3,33.3,82,29.90,5.0,ESE,11.5,-,N/A,,Haze,110,2012-12-15 18:33:00
1:53 PM,37.2,32.4,83,29.91,5.0,ESE,13.8,19.6,N/A,,Haze,120,2012-12-15 18:53:00
2:14 PM,36.5,32.2,84,29.91,5.0,SE,9.2,-,N/A,,Overcast,130,2012-12-15 19:14:00
2:34 PM,35.8,32.0,86,29.92,5.0,SE,8.1,-,N/A,,Overcast,130,2012-12-15 19:34:00
2:54 PM,35.8,32.0,86,29.91,5.0,SE,6.9,-,N/A,,Overcast,130,2012-12-15 19:54:00
3:14 PM,35.4,33.3,92,29.89,1.8,ESE,9.2,-,N/A,Snow,Light Snow,120,2012-12-15 20:14:00
3:34 PM,33.3,32.9,99,29.87,0.5,East,9.2,-,N/A,Snow,Light Snow,100,2012-12-15 20:34:00
3:54 PM,33.3,33.3,100,29.86,0.8,East,10.4,-,N/A,Snow,Light Snow,100,2012-12-15 20:54:00
4:14 PM,33.3,33.3,100,29.84,1.0,ESE,10.4,-,N/A,Snow,Light Snow,110,2012-12-15 21:14:00
4:35 PM,33.3,33.3,100,29.82,1.0,East,10.4,-,N/A,Snow,Light Snow,100,2012-12-15 21:35:00
4:55 PM,33.3,33.3,100,29.81,1.2,ESE,11.5,-,N/A,Snow,Light Snow,110,2012-12-15 21:55:00
5:15 PM,33.3,33.3,100,29.80,2.0,East,9.2,-,N/A,Snow,Light Snow,100,2012-12-15 22:15:00
5:35 PM,33.3,33.3,100,29.79,1.0,East,9.2,-,N/A,Snow,Light Snow,100,2012-12-15 22:35:00
5:55 PM,33.3,33.3,100,29.77,1.2,East,10.4,-,N/A,Snow,Light Snow,100,2012-12-15 22:55:00
6:15 PM,33.3,33.3,100,29.76,5.0,ESE,11.5,17.3,N/A,Rain,Light Rain,110,2012-12-15 23:15:00
6:35 PM,34.0,34.0,100,29.75,5.0,East,15.0,19.6,N/A,,Overcast,100,2012-12-15 23:35:00
6:55 PM,35.4,35.4,100,29.74,7.0,ESE,13.8,-,N/A,Snow,Light Snow,110,2012-12-15 23:55:00
7:16 PM,35.4,35.4,100,29.74,7.0,ESE,13.8,18.4,N/A,Rain,Rain,120,2012-12-16 00:16:00
7:31 PM,35.1,35.1,100,29.74,7.0,ESE,16.1,23.0,N/A,Rain,Rain,120,2012-12-16 00:31:00
7:51 PM,35.8,35.6,99,29.73,7.0,ESE,15.0,-,N/A,Snow,Light Snow,120,2012-12-16 00:51:00
8:11 PM,35.8,35.6,99,29.72,5.0,ESE,15.0,20.7,N/A,Rain,Light Rain,120,2012-12-16 01:11:00
8:31 PM,35.8,35.6,99,29.72,5.0,SE,17.3,21.9,N/A,Rain,Light Rain,130,2012-12-16 01:31:00
8:51 PM,35.6,35.6,100,29.70,5.0,ESE,13.8,18.4,N/A,,Overcast,120,2012-12-16 01:51:00
9:11 PM,34.5,34.3,99,29.69,5.0,SE,12.7,-,N/A,,Overcast,130,2012-12-16 02:11:00
9:31 PM,34.5,34.5,100,29.69,7.0,ESE,10.4,-,N/A,Rain,Light Rain,120,2012-12-16 02:31:00
9:52 PM,34.9,34.9,100,29.68,7.0,ESE,10.4,-,N/A,Rain,Light Rain,120,2012-12-16 02:52:00
10:12 PM,34.0,34.0,100,29.67,7.0,ESE,10.4,-,N/A,Rain,Light Rain,120,2012-12-16 03:12:00
10:32 PM,34.7,34.7,100,29.66,7.0,ESE,10.4,16.1,N/A,Rain,Light Rain,120,2012-12-16 03:32:00
10:52 PM,35.4,35.4,100,29.65,7.0,ESE,9.2,-,N/A,,Drizzle,120,2012-12-16 03:52:00
11:12 PM,35.1,35.1,100,29.64,5.0,ESE,6.9,-,N/A,Rain,Light Rain,110,2012-12-16 04:12:00
11:32 PM,35.8,35.8,100,29.64,4.0,ESE,6.9,-,N/A,Rain,Light Rain,110,2012-12-16 04:32:00
11:52 PM,35.8,35.8,100,29.62,3.0,East,9.2,-,N/A,Rain,Light Rain,100,2012-12-16 04:52:00